Location: El Águila
(10.4167°N, 66.7167°W)
Time: 06:10:36
(UTC+00:00)

Aureole 3 Rocket - Pass Details

Date: 02 October 2022
Orbit: 398 x 1733 km, 82.5° (Epoch: 26 November)

Event Time Altitude Azimuth Distance (km) Brightness Sun altitude
Rises 23:01:46 0° 5° (N) 4,291 7.3 -11.9°
Reaches altitude 10° 23:05:04 10° 11° (N) 3,106 6.5 -12.7°
Maximum altitude 23:11:45 44° 81° (E) 1,254 4.1 -14.4°
Drops below altitude 10° 23:16:34 10° 153° (SSE) 2,245 5.7 -15.6°
Sets 23:18:37 0° 160° (SSE) 3,004 6.4 -16.1°
